Горадиз

Азербайджан     39˚26′50″N   47˚20′12″E
темп.,
°C
ветер,
м/с
пор.,
м/с
влажн.,
%
обл.,
%
осадки,
мм/ч
давл.,
гПа
погр.,
м
5 декабря, сб
сб500:30+7˚с018990 0.0 102978
03:30+6˚св129264 0.0 102832
06:30+4˚ссв019836 0.0 102827
09:30+6˚всв119359 0.0 1028147
12:30+8˚всв2279100 0.0 1026480
15:30+7˚всв558294 0.1 1025444
18:30+5˚св349297 0.5 1026278
21:30+5˚св468998 1.5 1026359
6 декабря, вс
вс600:30+4˚св4687100 1.4 1026450
03:30+3˚ссв4691100 2.7 1026355
06:30+3˚всв4692100 1.3 1026366
09:30+2˚св4595100 2.4 1027321
12:30+3˚св3595100 1.6 1026328
15:30+3˚ссв2395100 2.8 1026290
18:30+3˚всв3596100 0.6 1028356
21:30+2˚всв2494100 1.6 1029372
7 декабря, пн
пн700:30+2˚зсз229499 0.2 1030149
03:30+2˚ссз018895 0.3 1030113
06:30+2˚св119698 0.1 1031125
09:30+2˚в229599 0.3 1032194
12:30+3˚вюв128999 0.2 1030314
15:30+4˚в2367100 0.3 1030763
18:30+4˚всв127396 0.0 1031189
21:30+3˚св117597 0.0 103289
8 декабря, вт
вт800:30+2˚сз117997 0.0 103132
03:30+2˚сз117992 0.0 103030
06:30+1˚з118082 0.0 103122
09:30+3˚св117895 0.0 1031258
12:30+5˚св226698 0.0 1029783
15:30+5˚всв226599 0.0 1029781
18:30+5˚в2373100 0.0 1030441
21:30+4˚всв127699 0.0 1031196
9 декабря, ср
ср900:30+3˚с118275 0.0 103024
03:30+2˚ссв118469 0.0 103023
06:30+2˚с008579 0.0 102922
09:30+3˚сз007783 0.0 1030212
12:30+5˚всв116796 0.0 1028710
15:30+6˚св226598 0.0 1027781
18:30+5˚всв1168100 0.0 1028371
21:30+5˚в0071100 0.0 102928